NOAA NWS Hourly Roundups by Site

Regional Weather Roundup for San Diego, CA

To Select Another Site Choose from List

Select Site:  

000
ASUS46 KSGX 261211
RWRSGX

SAN DIEGO HOURLY WEATHER ROUNDUP
NATIONAL WEATHER SERVICE SAN DIEGO CA
500 AM PDT FRI APR 26 2019

NOTE: "FAIR" INDICATES FEW OR NO CLOUDS BELOW 12,000 FEET WITH NO
SIGNIFICANT WEATHER AND/OR OBSTRUCTIONS TO VISIBILITY.

CAZ042-043-060-061-PZZ750-775-261300-

GREATER SAN DIEGO AREA

CITY           SKY/WX    TMP DP  RH WIND       PRES   REMARKS
SAN DIEGO AP   CLOUDY    61  55  81 CALM      30.00R
NATIONAL CITY    N/A     61  57  87 CALM      29.98S
CHULA VISTA      N/A     60  56  87 CALM      29.90S
IMPERIAL BEACH LGT RAIN  60  54  80 W5        29.99S
BROWN FIELD    CLOUDY    58  54  86 W6        29.98R
MIRAMAR MCAS   CLOUDY    61  55  81 CALM      29.98S
MONTGOMERY FLD CLOUDY    59  54  83 CALM      29.98S
GILLESPIE FLD  CLOUDY    59  55  88 NW5       29.97S

$$

NORTH SAN DIEGO COUNTY

CITY           SKY/WX    TMP DP  RH WIND       PRES   REMARKS
CAMP PENDLETON CLOUDY    57  56  96 N5        29.98F
OCEANSIDE AP   CLOUDY    59  55  87 CALM      29.97F
OCEANSIDE HBR    N/A     60  57  89 S3        30.00F
VISTA            N/A     58  52  82 CALM      29.96F
CARLSBAD       CLOUDY    59  55  87 NE3       29.97F
DEL MAR          N/A     58  56  93 CALM      29.99F
LA JOLLA SCRIP   N/A     58  55  89 NW2       29.98S
FALLBROOK      FOG       54  54 100 CALM      29.99F VSB 1
ESCONDIDO        N/A     58  55  90 CALM      29.97F
SAN MARCOS       N/A     56  54  91 CALM      30.00F
POWAY            N/A     57  53  87 CALM      29.99F

$$

EAST SAN DIEGO COUNTY

CITY           SKY/WX    TMP DP  RH WIND       PRES   REMARKS
RAMONA         FOG       49  47  93 CALM      29.98S VSB 1/4
SANTEE LAKES     N/A     58  56  90 W2        29.92F
LA MESA          N/A     57  55  92 CALM      29.92S
JAMUL            N/A     55  53  94 CALM      29.96F
MT. LAGUNA OBS   N/A     52  31  45 W12       29.81S
CAMPO            N/A     46  40  79 NE6       29.98F

$$

ORANGE COUNTY AND THE LOS ANGELES BASIN

CITY           SKY/WX    TMP DP  RH WIND       PRES   REMARKS
JOHN WAYNE AP  CLOUDY    60  53  77 SW3       29.98F
LAGUNA BEACH     N/A     60  56  85 SW1       29.97S
LAKE FOREST FR   N/A     54  51  88 CALM      29.86F
HUNTINGTON BCH   N/A     58  55  91 SE1       29.99S
LOS ALAMITOS   CLOUDY    57  55  94 CALM      29.99S
FULLERTON      CLOUDY    59  54  83 CALM      29.98S
LONG BEACH     CLOUDY    58  54  86 CALM      29.99S
L.A. AP        CLOUDY    58  54  86 E6        29.99S FOG
L.A. DOWNTOWN  CLOUDY    59  54  83 CALM      29.98S HAZE

$$

THE INLAND EMPIRE

CITY           SKY/WX    TMP DP  RH WIND       PRES   REMARKS
CORONA         CLEAR     52  52 100 CALM      29.99S FOG
CHINO          PTCLDY    51  51 100 W3        29.99F FOG
ONTARIO        PTCLDY    58  56  93 SW3       29.98S
SAN BERNARDINO FAIR      58  46  64 CALM      29.99S
RIVERSIDE AP   CLEAR     56  53  90 CALM      29.98F
MORENO VALLEY    N/A     56  52  88 CALM      28.10S
MARCH ARB      CLEAR     48  48  99 CALM      29.97F
HORSETHIEF CYN   N/A     54  45  73 CALM      29.95S
PERRIS           N/A     56  50  79 CALM      29.95S
HEMET EAST       N/A     58  31  36 CALM      29.87F
FRENCH VALLEY  FAIR      50  45  81 CALM      29.99F
TEMECULA         N/A     52  51  97 CALM      29.97S

$$

SAN BERNARDINO AND RIVERSIDE COUNTY MOUNTAINS

CITY           SKY/WX    TMP DP  RH WIND       PRES   REMARKS
BIG BEAR AP    CLEAR     36  27  69 CALM      30.20S

$$

SOUTHERN DESERT INCLUDING THE COACHELLA VALLEY

CITY           SKY/WX    TMP DP  RH WIND       PRES   REMARKS
PALM SPRINGS   CLEAR     71  48  43 CALM      29.85S
THOUSAND PALMS   N/A     80  40  24 W15       29.79S
PALM DESERT      N/A     69  52  54 CALM      27.24F
THERMAL          N/A     81  37  20 NW12      29.79S
BORREGO AP     FAIR      61  39  44 W5        29.84S
BLYTHE         CLEAR     69  37  30 NW7       29.83S
IMPERIAL AP    CLEAR     70  39  32 NW3       29.81R
YUMA AZ        CLEAR     71  36  27 CALM      29.83R

$$

UPPER DESERT

CITY           SKY/WX    TMP DP  RH WIND       PRES   REMARKS
HESPERIA         N/A     60  40  47 NE7       29.89S
APPLE VALLEY     N/A     49  44  82 CALM      29.93S
PALMDALE       CLEAR     67  45  45 SW10      29.98S
LANCASTER      CLEAR     64  47  53 CALM      29.96S
EDWARDS AFB    PTCLDY    62  41  46 SW9       29.93S
DAGGETT        CLEAR     68  39  34 W12       29.93S
29 PALMS N     CLEAR     64  30  27 NW6       30.00R
NEEDLES        CLEAR     74  32  21 W8        29.85S

$$

REGIONAL REPORTS

CITY           SKY/WX    TMP DP  RH WIND       PRES   REMARKS
SANTA BARBARA  CLOUDY    54  54 100 SW3       29.98S FOG
SANDBERG       CLEAR     61  48  62 NW14      30.08F
LAS VEGAS NV   MOCLDY    72  41  32 S3        29.91S
PHOENIX AZ     CLEAR     73  43  33 SE8       29.88R
TIJUANA        CLOUDY    57  55  94 CALM      30.00  FOG

$$

OFFSHORE ISLANDS

CITY           SKY/WX    TMP DP  RH WIND       PRES   REMARKS
CATALINA ARPT  FOG       52  52 100 E7        29.99S VSB 1/4
SAN CLEMENTE I CLOUDY    54  50  87 MISG      30.00S
SAN NICOLAS IS FOG       54  50  86 W6        29.99S VSB 1

$$

MARINE AND OFFSHORE BUOY REPORTS

STATION/POSITION SKY/WX   TEMP    WIND        PRES    VSBY  SWELL
                          AIR SEA DIR/SP/G                  HT/PER/DIR
                          (F)     (DEG/KT/KT) (MB)    (MI)  (FT/S/D)
TANNER BANKS               56 59              1015.5R
S CLEMENTE BASIN           57 63  320/  6/  8 1015.4S         3/260/11
SAN NICOLAS IS.               58                N/A           3/260/12
SO. S. ROSA ISLA           54 57  300/  4/  6 1015.3R         5/290/11
W. S. BARBARA CH                                N/A           5/280/10
M. S. BARBARA CH           54 58   CALM  /  2 1015.9R         3/260/10
S. MONICA BASIN            56 61   70/  2/  4 1015.4R         2/240/11
S PEDRO CHANNEL               61                N/A           2/270/11
CMP PENDLETON NS              65                N/A           2/220/15
OCEANSIDE OFFSHR              65                N/A           2/200/15
TORREY PINES OTR              64                N/A           2/210/14
SAN DIEGO BAY                 65              1014.8F
IMPERIAL BEACH                62                N/A           2/270/11
POINT LOMA SOUTH              64                N/A           2/260/12

$$



 

View Past Reports for San Diego, CA.

Products Courtesy of NOAA-NWS
NWS Information Parsing Script by Ken True at Saratoga Weather - Script by SE Lincoln Weather.